Regional Weather Roundup
Issued by NWS

Home | Current Version | Previous Version | Graphics & Text | Print | Product List | Glossary On
Versions: 1 2 3 4 5 6 7 8 9 10 11 12 13 14 15 16 17 18 19 20 21 22 23 24 25 26 27 28 29 30 31 32 33 34 35 36 37 38 39 40 41 42 43 44 45 46 47 48 49 50
000
ASUS43 KTOP 221308
RWRKS

WEATHER ROUNDUP FOR KANSAS
NATIONAL WEATHER SERVICE GOODLAND KS
700 AM CST WED NOV 22 2017

NOTE:  "FAIR" INDICATES FEW OR NO CLOUDS BELOW 12,000 FEET WITH NO
SIGNIFICANT WEATHER AND/OR OBSTRUCTIONS TO VISIBILITY.

KSZ001>006-013>018-027>032-041>047-221400-
NORTHWEST KANSAS

CITY           SKY/WX    TMP DP  RH WIND       PRES   REMARKS
GOODLAND       CLOUDY    36  27  69 W13       30.20F WCI  27
HAYS           CLOUDY    24  17  74 S7        30.35F
HILL CITY      CLOUDY    28  16  60 S5        30.31F
RUSSELL        CLOUDY    21  15  78 S7        30.35S
$$

KSZ061>065-074>080-084>089-221400-
SOUTHWEST KANSAS

CITY           SKY/WX    TMP DP  RH WIND       PRES   REMARKS
DODGE CITY     CLOUDY    28  15  58 S9        30.34F
ELKHART        CLOUDY    33  29  87 SW9       30.29S
GARDEN CITY    CLOUDY    27  21  78 S7        30.31F
GREAT BEND     CLOUDY    22  16  78 S3        30.39R
LIBERAL        CLOUDY    27  23  85 S8        30.35R
PRATT          CLOUDY    21  14  73 CALM      30.40R
$$

KSZ066>073-081>083-090>101-221400-
SOUTHEAST KANSAS

CITY           SKY/WX    TMP DP  RH WIND       PRES   REMARKS
CHANUTE        CLOUDY    21  14  74 NW3       30.43R
COFFEYVILLE    CLOUDY    22  16  78 N6        30.45R
HUTCHINSON     CLOUDY    19  14  81 W3        30.40S
MEDICINE LODGE   N/A     23  14  68 CALM      30.42S
NEWTON         CLOUDY    20  13  74 CALM      30.41R
PARSONS        CLOUDY    18  16  92 CALM      30.45R
WICHITA INTL   CLOUDY    24  15  68 E5        30.41S
WICHITA JABRA  CLOUDY    20  14  77 CALM      30.41F
WICHITA MCCONL CLOUDY    23  13  65 CALM      30.41S
WINFIELD       CLOUDY    20  14  77 CALM      30.43F
$$

KSZ007>012-019>026-033>040-048>060-102>105-221400-
NORTHEAST KANSAS

CITY           SKY/WX    TMP DP  RH WIND       PRES   REMARKS
CONCORDIA      CLOUDY    18  12  77 SW6       30.38F
EMPORIA        CLOUDY    18  12  77 CALM      30.41F
LAWRENCE       PTCLDY    16  12  84 CALM      30.43S
MANHATTAN      CLOUDY    16  10  77 CALM      30.42S
MARYSVILLE     CLOUDY    14  12  92 CALM      30.39S
OLATHE IND     CLOUDY    19  14  81 CALM      30.42S
OLATHE EXE     CLOUDY    18  13  80 CALM      30.41S
SALINA         CLOUDY    21  14  74 CALM      30.41S
TOPEKA BILLARD CLOUDY    18  14  84 NW5       30.43F
TOPEKA FORBES  PTCLDY    18  13  80 CALM      30.41F
$$




USA.gov is the U.S. government's official web portal to all federal, state and local government web resources and services.